Wind_Speed
24 23 23 21 19 18 16 14 12 10 8 4 3 1 1 3 5 5 5 6 6 6 5 6 7 7 7 7 7 6 6 5 5 5 5 5 5 5 5 6 6 7 7 7 8 8 8 8 8
25 25 26 25 22 20 17 15 13 11 9 7 4 2 1 4 5 6 7 7 7 6 6 6 7 7 7 7 7 6 6 5 5 5 4 4 4 4 4 4 4 5 6 6 6 6 7 7 8
25 27 28 28 26 22 19 17 15 13 11 8 5 3 2 4 5 7 7 8 8 7 6 6 7 6 6 6 6 6 6 5 5 5 4 4 3 3 3 3 3 4 5 5 6 6 6 6 7
25 28 30 30 28 25 22 20 18 16 14 11 9 6 4 4 5 7 8 8 7 6 7 7 6 6 6 6 6 6 6 5 5 4 4 3 2 2 2 2 3 4 5 5 6 6 6 6 7
24 27 29 30 29 27 24 23 21 19 17 14 11 8 5 4 5 7 8 7 6 5 6 6 5 5 6 6 6 6 6 5 5 4 3 3 2 2 2 2 3 4 5 5 6 7 7 7 8
24 25 26 26 29 30 27 25 23 21 19 16 13 10 6 5 5 6 7 6 5 5 5 5 4 4 5 6 6 6 6 6 5 5 4 3 2 1 1 2 3 4 5 6 7 8 8 8 8
24 23 23 23 29 32 30 28 26 23 21 18 15 12 9 6 5 6 7 5 4 4 4 4 4 5 5 6 6 6 6 6 6 5 4 4 3 2 2 2 3 4 5 7 8 9 9 9 9
24 22 20 21 27 32 32 31 29 27 24 21 17 14 11 7 6 6 6 5 4 3 3 4 5 6 7 7 7 7 7 7 7 6 5 5 4 3 3 3 4 5 6 8 9 10 10 10 10
24 22 18 19 25 31 35 34 32 31 27 24 19 16 12 9 7 6 6 5 3 3 4 5 6 7 8 8 8 9 8 8 7 7 6 5 5 4 4 4 5 6 7 8 9 11 11 11 12
25 21 18 20 25 33 37 37 35 33 29 25 21 17 13 9 8 7 6 5 3 3 5 6 7 8 8 9 10 10 9 8 8 7 6 6 6 6 5 5 6 7 8 9 10 11 12 12 13
27 23 21 23 26 33 38 39 38 36 31 27 22 18 14 11 8 7 6 5 3 4 5 7 8 8 9 10 10 10 10 9 8 8 7 7 7 7 6 7 8 9 9 10 10 11 13 13 14
29 26 24 24 26 31 37 40 39 37 33 29 24 20 16 11 9 8 7 6 4 4 6 8 8 9 9 9 10 10 10 9 9 9 8 9 9 8 8 8 9 10 11 11 12 13 13 14 14
30 28 26 26 26 29 35 39 39 37 35 32 26 22 18 14 11 10 8 7 6 5 7 8 9 10 10 10 10 10 10 10 10 10 10 10 10 9 9 10 11 12 13 13 13 14 14 14 15
31 29 28 26 26 28 33 36 37 36 35 32 27 23 20 16 13 12 9 8 7 7 8 9 10 11 12 12 11 11 11 11 11 11 11 11 11 11 12 12 13 14 15 15 16 16 16 16 16
32 29 28 27 25 26 29 33 34 34 33 31 28 25 23 18 15 13 11 9 9 8 9 11 12 13 14 13 13 13 13 13 13 13 13 14 14 14 15 16 16 16 17 18 19 19 19 19 18
32 30 28 27 27 27 27 29 31 33 33 31 28 26 23 19 17 16 14 12 11 11 11 13 14 16 16 16 15 15 15 15 15 15 15 16 16 17 18 19 20 20 20 21 21 22 21 21 21
32 31 29 28 29 29 28 28 31 32 32 31 28 26 24 22 20 18 16 15 14 13 14 15 17 18 19 19 19 18 18 18 18 18 19 19 20 21 22 22 24 24 24 25 24 24 24 24 24
31 31 30 29 29 30 29 29 32 32 31 30 29 27 25 24 22 20 18 17 17 17 17 18 19 21 22 22 22 22 21 22 22 23 23 23 24 25 26 25 26 28 29 29 29 28 28 27 27
31 31 30 30 31 30 30 30 33 33 31 30 29 28 27 25 24 22 20 20 19 19 20 21 22 23 24 25 24 25 25 25 25 26 27 27 28 28 28 29 30 31 31 32 32 31 31 30 29
30 30 29 30 32 32 32 31 32 34 32 30 30 29 28 27 26 23 22 22 22 22 21 21 22 24 25 25 26 27 29 29 29 30 29 31 31 32 33 33 34 34 33 33 32 32 33 31 31
28 29 28 29 31 31 31 32 31 32 32 31 30 29 29 27 26 25 25 24 23 23 23 21 22 25 26 27 29 29 31 31 32 32 32 33 34 33 34 34 35 37 37 35 34 35 35 33 34
26 27 28 29 30 30 31 32 32 31 31 31 30 30 29 28 28 27 27 25 24 24 23 23 23 25 26 28 30 32 33 33 34 35 34 33 33 34 35 35 36 37 34 34 35 36 36 36 38
26 27 28 29 30 31 31 32 32 31 31 30 30 30 30 29 29 29 28 27 26 25 24 25 26 27 28 31 32 34 36 36 37 37 37 35 34 36 38 37 38 39 37 38 38 39 40 40 41
26 28 28 29 31 31 31 32 32 31 30 30 30 30 30 30 31 30 29 28 27 27 27 29 28 28 30 31 33 36 37 38 39 40 39 38 38 39 40 40 40 40 41 41 42 42 43 43 43
27 29 29 30 31 31 32 33 34 32 31 31 31 30 30 31 31 31 31 30 30 30 31 32 31 31 33 35 37 38 39 39 41 41 40 40 40 41 41 42 42 43 44 44 44 45 45 45 46
26 29 31 31 32 33 33 34 33 31 30 31 31 31 31 31 31 32 33 32 33 33 33 34 35 35 36 37 39 40 41 42 42 42 43 43 43 43 43 44 44 45 46 47 47 48 48 49 51
25 27 30 31 31 33 34 35 35 33 32 33 33 33 32 32 33 33 34 35 36 37 38 38 39 39 39 41 41 42 43 42 43 43 43 44 44 45 45 46 47 48 48 49 50 51 52 53 54
24 26 28 30 30 32 34 35 35 33 33 33 33 34 34 34 34 35 37 38 39 39 39 40 40 40 41 41 42 42 43 43 44 44 45 45 46 46 47 48 49 50 51 52 53 55 56 57 58
24 26 28 29 30 30 32 34 34 34 34 34 35 35 35 36 36 37 37 38 38 39 40 40 39 41 41 41 41 42 42 43 44 44 45 45 46 47 48 50 51 52 54 55 56 58 58 59 61
22 23 26 27 27 29 31 33 33 34 34 34 35 36 36 36 36 36 36 37 38 39 39 40 40 40 40 41 40 40 40 41 42 43 44 46 48 49 50 52 53 54 56 57 58 60 61 62 63
Wind_Direction
217 209 206 206 206 212 221 230 237 239 232 218 198 198 11 0 347 333 325 318 304 293 285 273 258 250 244 240 245 252 255 261 262 265 270 276 280 287 295 303 308 314 317 320 322 324 325 327 326
224 215 211 209 209 211 220 230 236 237 240 233 226 234 333 349 342 337 328 321 306 291 280 268 252 244 240 239 244 247 250 255 257 260 265 271 279 287 295 305 313 318 321 324 326 328 328 328 327
230 222 215 211 211 213 220 229 238 240 235 233 240 254 304 343 338 328 318 314 305 286 271 261 247 239 236 238 239 238 241 245 244 249 257 266 277 290 305 319 322 321 323 325 327 327 325 325 324
235 228 222 216 212 213 219 228 235 239 240 241 250 260 291 328 334 321 314 309 302 283 263 254 244 235 230 226 224 224 227 229 230 238 247 254 267 288 305 317 320 321 320 320 320 319 320 322 322
240 235 229 221 214 213 218 227 233 239 243 245 250 256 278 313 323 319 317 308 296 276 259 250 237 225 216 213 210 211 215 217 218 221 227 232 241 263 293 315 320 320 318 316 316 317 318 320 320
242 242 238 228 215 213 217 226 233 240 244 248 254 262 280 303 320 321 317 306 291 267 251 240 224 211 203 202 203 205 205 207 208 206 207 215 219 234 279 306 314 313 312 312 314 316 317 317 318
244 247 243 231 216 213 216 225 231 236 243 247 253 261 273 293 313 322 319 307 279 251 234 225 208 196 191 191 189 188 188 189 190 190 193 199 204 215 243 274 291 296 302 306 309 310 312 314 315
244 248 246 233 219 213 217 225 230 235 241 245 251 260 268 287 309 323 320 308 272 234 209 196 188 181 178 177 176 178 179 178 178 179 184 190 198 213 237 264 279 288 299 303 304 305 306 307 307
241 246 246 232 219 212 217 224 230 235 239 243 249 258 267 281 298 315 315 300 272 227 195 179 173 170 172 173 174 175 174 174 177 180 185 195 210 228 249 265 276 286 294 298 301 305 306 304 304
238 242 239 226 217 212 216 223 228 232 237 240 243 252 263 275 286 295 299 290 267 209 185 175 170 170 173 176 176 176 175 178 184 189 198 212 227 241 257 268 279 285 290 294 300 304 304 306 307
235 236 231 224 219 214 217 223 227 231 235 237 239 248 259 268 278 282 278 272 253 206 186 179 176 179 182 181 181 182 184 188 193 199 210 223 234 247 261 266 273 280 284 288 295 301 305 305 306
231 231 229 225 222 218 218 222 227 230 233 238 240 247 255 259 268 274 268 255 236 209 196 190 186 185 186 186 187 189 192 196 203 210 220 231 240 250 258 261 268 273 279 284 290 296 302 302 302
229 228 227 225 224 222 220 223 227 230 233 238 242 248 255 258 260 262 263 248 233 214 205 202 198 194 194 196 197 200 204 208 214 219 227 237 244 249 253 259 266 272 277 282 287 290 293 297 298
227 227 227 226 225 223 220 222 226 230 235 239 243 246 251 250 250 254 254 240 227 221 215 211 211 209 208 208 209 212 215 217 221 227 233 240 246 251 257 261 266 270 275 280 283 285 287 290 295
226 227 226 225 224 222 221 223 226 229 235 239 242 244 245 244 244 245 243 229 226 224 222 224 225 224 222 221 223 224 225 228 233 238 241 244 250 255 259 262 266 268 273 277 281 283 284 286 288
224 225 223 223 221 220 219 218 223 227 233 237 240 241 240 239 239 241 241 234 233 229 228 228 229 231 232 232 234 236 239 242 245 249 252 253 258 261 263 265 267 270 273 276 280 282 283 284 286
222 222 221 221 220 220 218 215 221 227 232 236 238 237 235 236 237 237 238 237 236 237 236 233 230 234 238 241 243 246 248 251 255 257 258 259 262 265 268 270 273 274 276 276 279 281 284 283 282
220 220 219 220 219 221 220 217 221 229 233 236 237 236 233 233 236 236 236 239 238 240 238 235 232 237 242 244 249 249 252 254 256 258 260 264 266 269 271 274 277 278 277 279 280 281 279 280 280
219 218 218 218 221 222 223 222 224 230 234 237 238 235 234 233 235 234 236 238 239 241 241 240 236 239 244 247 249 252 255 259 259 261 264 267 269 272 273 277 279 280 281 282 284 283 282 283 284
219 218 216 217 221 223 225 226 227 231 235 237 237 235 235 233 233 235 237 237 237 238 241 244 246 245 246 248 251 253 258 263 262 265 270 272 273 275 275 278 281 283 283 281 283 285 285 286 287
217 216 215 217 220 224 226 227 229 231 233 234 234 233 233 232 232 236 240 241 240 242 244 250 255 253 253 254 256 259 261 264 268 271 273 274 276 277 278 282 284 285 284 283 285 288 287 286 288
214 214 213 216 219 221 223 225 228 231 232 233 232 231 232 234 235 238 241 244 245 247 251 256 260 261 262 264 264 265 267 272 275 276 277 281 281 282 286 287 286 286 289 289 291 292 290 290 292
211 212 211 213 217 219 223 224 227 229 230 232 231 230 233 235 237 240 244 248 250 253 256 258 262 266 267 270 270 272 276 279 280 282 285 288 289 292 292 291 290 289 291 294 293 293 294 293 292
210 211 211 212 215 217 221 224 225 228 229 231 232 233 235 238 240 242 246 250 254 256 259 262 266 269 271 272 273 276 278 282 283 287 287 290 292 293 293 290 292 291 291 293 293 293 294 292 291
212 211 211 212 215 218 220 225 227 228 228 230 233 235 239 241 243 246 249 253 256 259 260 265 268 271 273 275 277 278 279 282 285 288 289 290 290 292 292 292 292 292 292 293 293 292 292 292 291
214 213 213 215 219 221 221 226 228 231 231 233 236 239 243 246 248 251 254 256 258 261 263 266 268 271 272 274 276 279 281 284 284 285 288 289 289 290 290 290 291 291 291 292 292 292 292 291 291
216 216 215 218 222 226 227 230 233 234 237 240 242 244 247 251 253 256 258 259 261 262 265 267 270 272 274 276 277 279 281 282 284 285 286 287 287 289 289 289 290 291 292 292 292 292 292 291 291
216 216 218 220 224 229 232 234 236 239 242 244 248 252 254 257 259 260 260 261 263 265 267 268 269 271 274 275 277 278 280 281 283 285 286 287 288 288 290 291 291 291 292 292 292 292 292 292 291
218 219 221 224 228 232 236 239 241 245 248 250 254 258 260 262 264 265 265 264 265 268 270 269 271 272 272 274 276 278 281 282 283 285 285 287 288 289 290 291 291 291 292 292 292 292 292 291 291
223 225 226 228 231 234 238 243 244 249 252 255 257 259 261 264 266 269 271 270 270 270 270 271 272 272 274 275 277 280 281 282 283 284 285 287 289 290 290 290 291 291 292 293 293 292 292 291 291
Height
5870 5873 5875 5878 5880 5881 5881 5882 5882 5883 5884 5884 5884 5885 5885 5886 5888 5890 5888 5886 5886 5886 5886 5887 5888 5888 5889 5890 5891 5892 5893 5894 5895 5896 5897 5898 5898 5899 5899 5900 5900 5900 5900 5900 5899 5899 5899 5899 5898
5867 5870 5873 5875 5877 5878 5879 5880 5881 5882 5883 5883 5883 5884 5884 5884 5886 5886 5885 5885 5885 5885 5885 5886 5886 5887 5888 5889 5890 5891 5892 5893 5894 5894 5895 5896 5897 5898 5898 5898 5898 5898 5898 5898 5898 5898 5897 5897 5897
5864 5867 5870 5872 5874 5876 5878 5878 5879 5880 5881 5882 5882 5883 5883 5883 5884 5884 5884 5884 5884 5884 5884 5885 5885 5886 5886 5887 5888 5889 5891 5891 5892 5893 5894 5895 5896 5896 5897 5897 5897 5897 5897 5896 5896 5896 5896 5896 5896
5861 5864 5866 5869 5871 5874 5875 5876 5876 5877 5879 5881 5881 5882 5882 5883 5883 5884 5883 5883 5883 5883 5883 5884 5884 5884 5885 5886 5887 5888 5889 5890 5891 5892 5893 5894 5894 5895 5895 5895 5895 5895 5895 5895 5895 5895 5895 5895 5894
5857 5859 5862 5864 5869 5871 5873 5873 5874 5875 5877 5878 5879 5880 5881 5882 5882 5882 5882 5882 5882 5882 5883 5883 5883 5883 5884 5885 5886 5887 5888 5889 5890 5891 5892 5893 5893 5894 5894 5894 5894 5894 5893 5893 5893 5893 5893 5893 5893
5854 5856 5858 5861 5866 5869 5870 5870 5871 5873 5874 5876 5878 5879 5880 5881 5881 5881 5881 5881 5881 5881 5882 5882 5882 5882 5883 5884 5885 5886 5888 5889 5890 5890 5891 5892 5892 5893 5893 5893 5893 5893 5892 5892 5891 5891 5891 5891 5891
5851 5852 5854 5858 5862 5865 5867 5867 5869 5870 5872 5874 5876 5877 5878 5879 5880 5880 5880 5880 5880 5880 5880 5881 5881 5882 5883 5884 5885 5886 5887 5888 5889 5890 5890 5891 5892 5892 5892 5892 5892 5892 5891 5891 5890 5890 5890 5889 5889
5847 5849 5851 5854 5858 5862 5864 5864 5865 5867 5869 5872 5874 5876 5876 5878 5878 5879 5879 5879 5879 5879 5879 5880 5880 5881 5882 5884 5885 5886 5887 5888 5888 5889 5890 5890 5891 5891 5891 5891 5891 5891 5890 5890 5889 5888 5888 5887 5887
5843 5847 5848 5851 5854 5858 5859 5860 5862 5863 5866 5869 5871 5873 5875 5876 5876 5877 5878 5878 5878 5878 5878 5879 5880 5881 5882 5883 5884 5886 5887 5887 5888 5889 5889 5890 5890 5890 5891 5891 5890 5890 5889 5888 5888 5887 5886 5885 5884
5839 5843 5845 5847 5849 5852 5853 5855 5857 5860 5863 5866 5868 5870 5872 5874 5875 5876 5877 5878 5878 5878 5878 5879 5880 5881 5882 5883 5884 5885 5886 5887 5888 5888 5889 5889 5889 5890 5890 5890 5889 5889 5888 5887 5886 5885 5884 5883 5882
5835 5838 5840 5842 5844 5846 5848 5850 5853 5856 5859 5862 5865 5868 5870 5872 5873 5875 5876 5876 5877 5877 5878 5879 5880 5881 5882 5883 5884 5885 5885 5886 5887 5887 5888 5888 5888 5888 5888 5888 5888 5887 5886 5885 5884 5883 5882 5881 5880
5830 5833 5835 5837 5839 5841 5844 5846 5849 5852 5856 5859 5862 5865 5867 5869 5871 5873 5874 5875 5876 5876 5877 5878 5880 5881 5882 5883 5884 5884 5885 5885 5886 5886 5887 5887 5887 5887 5887 5886 5885 5885 5884 5883 5882 5881 5880 5878 5877
5824 5827 5829 5832 5835 5837 5840 5842 5845 5849 5853 5856 5859 5862 5865 5867 5869 5871 5872 5873 5874 5875 5877 5878 5879 5880 5881 5882 5883 5884 5884 5884 5885 5885 5885 5885 5885 5885 5885 5884 5883 5882 5881 5880 5879 5878 5877 5875 5874
5819 5822 5826 5829 5831 5834 5837 5839 5843 5847 5850 5854 5857 5860 5862 5864 5866 5868 5870 5871 5873 5874 5876 5877 5878 5879 5880 5881 5881 5882 5882 5882 5882 5883 5883 5883 5882 5882 5882 5881 5880 5879 5878 5877 5876 5875 5873 5872 5870
5814 5819 5822 5825 5828 5831 5834 5838 5841 5844 5847 5850 5854 5857 5859 5862 5864 5866 5867 5869 5871 5872 5874 5876 5877 5878 5879 5879 5880 5880 5880 5880 5880 5880 5880 5879 5879 5879 5878 5878 5877 5875 5874 5873 5872 5871 5870 5868 5867
5809 5814 5818 5821 5824 5827 5833 5835 5838 5840 5843 5847 5850 5853 5856 5859 5861 5863 5864 5866 5868 5870 5872 5873 5875 5876 5877 5877 5877 5878 5877 5877 5877 5877 5877 5876 5876 5875 5874 5873 5872 5871 5869 5868 5867 5866 5865 5864 5863
5804 5809 5813 5817 5820 5823 5828 5831 5834 5836 5839 5843 5846 5849 5853 5855 5858 5860 5862 5863 5865 5867 5869 5870 5872 5873 5874 5874 5874 5874 5874 5874 5873 5873 5872 5872 5871 5870 5869 5868 5867 5865 5864 5863 5862 5861 5860 5858 5857
5799 5804 5808 5812 5816 5820 5824 5827 5830 5832 5835 5839 5842 5845 5848 5851 5854 5856 5859 5861 5862 5863 5865 5867 5868 5870 5870 5870 5870 5870 5870 5869 5868 5867 5866 5866 5865 5864 5862 5861 5860 5859 5858 5856 5855 5854 5853 5851 5850
5794 5799 5804 5808 5811 5816 5819 5823 5826 5828 5832 5835 5837 5841 5844 5847 5850 5852 5855 5857 5858 5859 5861 5862 5863 5864 5864 5865 5865 5865 5864 5863 5862 5860 5860 5859 5858 5857 5856 5854 5853 5852 5850 5849 5848 5846 5845 5843 5842
5789 5795 5799 5803 5807 5811 5815 5818 5822 5825 5828 5830 5833 5836 5840 5843 5846 5848 5850 5852 5854 5855 5856 5857 5858 5858 5859 5859 5859 5859 5858 5857 5855 5854 5853 5852 5851 5850 5848 5847 5846 5844 5842 5841 5840 5838 5836 5835 5835
5785 5790 5795 5798 5802 5806 5811 5814 5818 5820 5824 5826 5829 5832 5836 5839 5841 5843 5845 5847 5849 5850 5850 5851 5852 5853 5853 5853 5852 5852 5852 5850 5848 5846 5845 5844 5843 5841 5840 5839 5838 5836 5834 5833 5831 5830 5829 5828 5827
5781 5785 5790 5794 5798 5802 5807 5810 5813 5816 5819 5822 5825 5828 5831 5834 5837 5839 5841 5842 5844 5845 5845 5846 5847 5848 5848 5847 5846 5845 5844 5843 5842 5840 5838 5836 5835 5834 5832 5831 5830 5828 5827 5825 5824 5822 5821 5820 5818
5777 5781 5786 5790 5794 5798 5802 5806 5810 5812 5815 5819 5821 5824 5827 5830 5832 5834 5835 5837 5838 5839 5839 5840 5841 5841 5841 5840 5840 5839 5838 5836 5835 5832 5831 5830 5828 5827 5825 5824 5822 5821 5820 5818 5816 5814 5813 5811 5809
5773 5778 5782 5786 5790 5795 5798 5802 5806 5808 5812 5815 5817 5820 5823 5825 5827 5828 5829 5831 5832 5833 5834 5834 5834 5834 5834 5833 5833 5832 5830 5828 5826 5824 5822 5822 5821 5819 5818 5816 5814 5813 5812 5809 5808 5806 5803 5801 5799
5770 5775 5780 5784 5787 5791 5794 5797 5801 5804 5808 5811 5813 5815 5817 5819 5821 5823 5824 5825 5826 5827 5827 5827 5827 5827 5827 5826 5825 5824 5822 5821 5819 5817 5815 5814 5813 5812 5810 5808 5806 5804 5802 5799 5797 5795 5793 5791 5788
5767 5771 5777 5781 5784 5787 5790 5793 5797 5800 5803 5806 5808 5810 5812 5814 5815 5817 5818 5819 5819 5820 5820 5820 5820 5820 5819 5818 5818 5816 5814 5813 5810 5809 5807 5806 5804 5803 5801 5799 5797 5794 5792 5789 5787 5784 5781 5779 5775
5764 5768 5772 5776 5779 5783 5785 5788 5792 5795 5798 5800 5802 5804 5805 5807 5809 5810 5811 5811 5812 5813 5813 5813 5812 5812 5811 5810 5809 5808 5806 5804 5802 5800 5798 5797 5795 5793 5791 5789 5786 5784 5781 5778 5775 5771 5768 5765 5762
5762 5765 5769 5772 5775 5778 5781 5783 5787 5790 5792 5794 5795 5797 5799 5800 5801 5802 5803 5804 5804 5805 5805 5805 5804 5803 5803 5801 5800 5799 5797 5796 5794 5791 5789 5787 5785 5783 5780 5778 5775 5772 5769 5765 5762 5758 5754 5751 5747
5759 5762 5765 5768 5771 5774 5776 5781 5782 5784 5786 5788 5789 5790 5791 5792 5793 5794 5795 5795 5795 5795 5795 5795 5795 5795 5794 5792 5791 5790 5788 5787 5785 5782 5780 5777 5775 5772 5769 5766 5763 5759 5756 5752 5748 5744 5739 5735 5731
5756 5758 5761 5765 5767 5769 5772 5777 5776 5778 5780 5781 5783 5783 5784 5785 5785 5786 5786 5787 5787 5787 5787 5786 5785 5785 5784 5783 5782 5780 5779 5777 5775 5773 5770 5767 5764 5761 5757 5754 5750 5746 5742 5738 5733 5728 5724 5719 5714